• In Uzbekistan
  • List of Countries
  • For 7 days
  • Water Temperature
  • Satellite Maps
  • Weather Map
  • Weather Widgets
  • user-avatar
    Login

    Hourly Weather Hefei

    Today, 20 January, Sunday

    Time Temperature Precipitation Wind Pressure Humidity
    00:00 +4°C° 0 mm 3 mps 768 mmHg 66%
    01:00 +4°C° 0 mm 3 mps 768 mmHg 67%
    02:00 +4°C° 0 mm 2 mps 769 mmHg 71%
    03:00 +3°C° 0 mm 2 mps 769 mmHg 72%
    04:00 +3°C° 0 mm 2 mps 770 mmHg 72%
    05:00 +2°C° 0 mm 2 mps 770 mmHg 72%
    06:00 +2°C° 0 mm 2 mps 770 mmHg 71%
    07:00 +2°C° 0 mm 2 mps 771 mmHg 69%
    08:00 +2°C° 0 mm 2 mps 771 mmHg 68%
    09:00 +3°C° 0 mm 2 mps 771 mmHg 61%
    10:00 +5°C° 0 mm 2 mps 771 mmHg 54%
    11:00 +5°C° 0 mm 3 mps 772 mmHg 47%
    12:00 +7°C° 0 mm 3 mps 772 mmHg 44%
    13:00 +8°C° 0 mm 3 mps 771 mmHg 41%
    14:00 +8°C° 0 mm 4 mps 771 mmHg 38%
    15:00 +7°C° 0 mm 4 mps 771 mmHg 38%
    16:00 +7°C° 0 mm 4 mps 771 mmHg 38%
    17:00 +6°C° 0 mm 4 mps 771 mmHg 38%
    18:00 +7°C° 0 mm 3 mps 772 mmHg 42%
    19:00 +5°C° 0 mm 3 mps 772 mmHg 45%
    20:00 +5°C° 0 mm 2 mps 772 mmHg 49%
    21:00 +5°C° 0 mm 2 mps 772 mmHg 50%
    22:00 +4°C° 0 mm 2 mps 772 mmHg 50%
    23:00 +5°C° 0 mm 1 mps 772 mmHg 51%

    Tomorrow, 21 January, Monday

    Time Temperature Precipitation Wind Pressure Humidity
    00:00 +4°C° 0 mm 1 mps 772 mmHg 51%
    01:00 +4°C° 0 mm 1 mps 772 mmHg 51%
    02:00 +3°C° 0 mm 0 mps 772 mmHg 52%
    03:00 +3°C° 0 mm 0 mps 771 mmHg 52%
    04:00 +3°C° 0 mm 1 mps 771 mmHg 52%
    05:00 +3°C° 0 mm 1 mps 770 mmHg 53%
    06:00 +3°C° 0 mm 1 mps 770 mmHg 53%
    07:00 +3°C° 0 mm 1 mps 770 mmHg 54%
    08:00 +3°C° 0 mm 1 mps 771 mmHg 54%
    09:00 +4°C° 0 mm 2 mps 771 mmHg 49%
    10:00 +5°C° 0 mm 2 mps 770 mmHg 44%
    11:00 +7°C° 0 mm 3 mps 770 mmHg 38%
    12:00 +8°C° 0 mm 3 mps 770 mmHg 34%
    13:00 +8°C° 0 mm 4 mps 769 mmHg 30%
    14:00 +8°C° 0 mm 4 mps 768 mmHg 26%
    15:00 +8°C° 0 mm 4 mps 768 mmHg 29%
    16:00 +8°C° 0 mm 4 mps 767 mmHg 31%
    17:00 +9°C° 0 mm 3 mps 767 mmHg 33%
    18:00 +8°C° 0 mm 3 mps 767 mmHg 37%
    19:00 +7°C° 0 mm 3 mps 768 mmHg 41%
    20:00 +6°C° 0 mm 2 mps 768 mmHg 44%
    21:00 +6°C° 0 mm 2 mps 768 mmHg 45%
    22:00 +4°C° 0 mm 3 mps 768 mmHg 46%
    23:00 +4°C° 0 mm 3 mps 768 mmHg 47%

    Day after tomorrow, 22 January, Tuesday

    Time Temperature Precipitation Wind Pressure Humidity
    00:00 +3°C° 0 mm 3 mps 768 mmHg 48%
    01:00 +3°C° 0 mm 3 mps 767 mmHg 49%
    02:00 +2°C° 0 mm 3 mps 767 mmHg 51%
    03:00 +2°C° 0 mm 3 mps 767 mmHg 51%
    04:00 +1°C° 0 mm 3 mps 767 mmHg 52%
    05:00 +1°C° 0 mm 3 mps 766 mmHg 53%
    06:00 +1°C° 0 mm 3 mps 767 mmHg 52%
    07:00 +1°C° 0 mm 3 mps 767 mmHg 51%
    08:00 +2°C° 0 mm 2 mps 767 mmHg 51%
    09:00 +3°C° 0 mm 3 mps 767 mmHg 44%
    10:00 +5°C° 0 mm 3 mps 767 mmHg 37%
    11:00 +9°C° 0 mm 3 mps 767 mmHg 31%
    12:00 +10°C° 0 mm 3 mps 767 mmHg 28%
    13:00 +11°C° 0 mm 4 mps 766 mmHg 25%
    14:00 +12°C° 0 mm 4 mps 765 mmHg 23%
    15:00 +12°C° 0 mm 3 mps 765 mmHg 25%
    16:00 +12°C° 0 mm 2 mps 765 mmHg 27%
    17:00 +12°C° 0 mm 2 mps 765 mmHg 28%
    18:00 +10°C° 0 mm 2 mps 765 mmHg 32%
    19:00 +10°C° 0 mm 1 mps 765 mmHg 35%
    20:00 +9°C° 0 mm 1 mps 766 mmHg 38%
    21:00 +8°C° 0 mm 1 mps 766 mmHg 41%
    22:00 +7°C° 0 mm 2 mps 766 mmHg 44%
    23:00 +6°C° 0 mm 2 mps 766 mmHg 47%

    23 January, Wednesday

    Time Temperature Precipitation Wind Pressure Humidity
    00:00 +6°C° 0 mm 2 mps 766 mmHg 49%
    01:00 +6°C° 0 mm 2 mps 766 mmHg 51%
    02:00 +5°C° 0 mm 2 mps 766 mmHg 52%
    03:00 +6°C° 0 mm 1 mps 766 mmHg 53%
    04:00 +6°C° 0 mm 1 mps 766 mmHg 54%
    05:00 +5°C° 0 mm 1 mps 766 mmHg 55%
    06:00 +5°C° 0 mm 1 mps 766 mmHg 55%
    07:00 +6°C° 0 mm 1 mps 767 mmHg 55%
    08:00 +6°C° 0 mm 1 mps 767 mmHg 56%
    09:00 +7°C° 0 mm 1 mps 767 mmHg 51%
    10:00 +9°C° 0 mm 1 mps 768 mmHg 47%
    11:00 +11°C° 0 mm 1 mps 768 mmHg 42%
    12:00 +12°C° 0 mm 1 mps 767 mmHg 39%
    13:00 +13°C° 0 mm 1 mps 767 mmHg 36%
    14:00 +14°C° 0 mm 1 mps 766 mmHg 33%
    15:00 +13°C° 0 mm 1 mps 766 mmHg 35%
    16:00 +13°C° 0 mm 1 mps 766 mmHg 36%
    17:00 +13°C° 0 mm 1 mps 766 mmHg 37%
    18:00 +12°C° 0 mm 1 mps 767 mmHg 40%
    19:00 +10°C° 0 mm 2 mps 767 mmHg 43%
    20:00 +9°C° 0 mm 2 mps 767 mmHg 46%
    21:00 +8°C° 0 mm 2 mps 767 mmHg 48%
    22:00 +8°C° 0 mm 3 mps 768 mmHg 51%
    23:00 +7°C° 0 mm 3 mps 768 mmHg 53%

    24 January, Thursday

    Time Temperature Precipitation Wind Pressure Humidity
    00:00 +5°C° 0 mm 3 mps 767 mmHg 55%
    01:00 +5°C° 0 mm 3 mps 767 mmHg 57%
    02:00 +4°C° 0 mm 3 mps 767 mmHg 59%
    03:00 +4°C° 0 mm 3 mps 767 mmHg 63%
    04:00 +3°C° 0 mm 3 mps 767 mmHg 67%
    05:00 +3°C° 0 mm 3 mps 767 mmHg 71%
    06:00 +3°C° 0 mm 4 mps 767 mmHg 72%
    07:00 +3°C° 0 mm 4 mps 767 mmHg 74%
    08:00 +3°C° 0 mm 4 mps 768 mmHg 76%
    09:00 +4°C° 0 mm 4 mps 768 mmHg 69%
    10:00 +6°C° 0 mm 4 mps 768 mmHg 62%
    11:00 +8°C° 0 mm 5 mps 768 mmHg 56%
    12:00 +10°C° 0 mm 4 mps 767 mmHg 52%
    13:00 +11°C° 0 mm 4 mps 766 mmHg 48%
    14:00 +12°C° 0 mm 4 mps 765 mmHg 45%
    15:00 +12°C° 0 mm 4 mps 765 mmHg 47%
    16:00 +11°C° 0 mm 3 mps 765 mmHg 48%
    17:00 +11°C° 0 mm 3 mps 765 mmHg 50%
    18:00 +10°C° 0 mm 3 mps 766 mmHg 55%
    19:00 +10°C° 0 mm 3 mps 766 mmHg 59%
    20:00 +9°C° 0 mm 3 mps 766 mmHg 63%
    21:00 +9°C° 0 mm 3 mps 766 mmHg 63%
    22:00 +9°C° 0 mm 3 mps 766 mmHg 64%
    23:00 +9°C° 0 mm 3 mps 767 mmHg 64%

    25 January, Friday

    Time Temperature Precipitation Wind Pressure Humidity
    00:00 +8°C° 0 mm 3 mps 767 mmHg 64%
    01:00 +8°C° 0 mm 3 mps 767 mmHg 65%
    02:00 +8°C° 0 mm 3 mps 767 mmHg 65%
    03:00 +8°C° 0 mm 3 mps 767 mmHg 67%
    04:00 +7°C° 0 mm 3 mps 767 mmHg 70%
    05:00 +6°C° 0 mm 4 mps 767 mmHg 72%
    06:00 +6°C° 0 mm 4 mps 768 mmHg 73%
    07:00 +6°C° 0 mm 4 mps 768 mmHg 75%
    08:00 +6°C° 0 mm 4 mps 769 mmHg 77%
    09:00 +7°C° 0 mm 4 mps 769 mmHg 73%
    10:00 +8°C° 0 mm 4 mps 770 mmHg 68%
    11:00 +10°C° 0 mm 4 mps 770 mmHg 64%
    12:00 +10°C° 0 mm 4 mps 770 mmHg 60%
    13:00 +11°C° 0 mm 4 mps 769 mmHg 56%
    14:00 +12°C° 0 mm 5 mps 769 mmHg 53%
    15:00 +10°C° 0 mm 5 mps 769 mmHg 53%
    16:00 +10°C° 0 mm 5 mps 770 mmHg 53%
    17:00 +10°C° 0 mm 5 mps 770 mmHg 53%
    18:00 +9°C° 0 mm 5 mps 770 mmHg 55%
    19:00 +8°C° 0 mm 4 mps 771 mmHg 57%
    20:00 +8°C° 0 mm 4 mps 772 mmHg 59%
    21:00 +7°C° 0 mm 4 mps 772 mmHg 61%
    22:00 +6°C° 0 mm 4 mps 772 mmHg 63%
    23:00 +6°C° 0 mm 4 mps 772 mmHg 65%
    Show more